Weather observations for the past three days for
Delta Junction/Ft Greely, Allen Army Airfield
Imperial (Metric)
Date Time (akdt) Wind (mph) Vis. (mi.) Weather Sky Cond. Temperature (ºF) Relative Humidity Wind Chill (°F) Heat Index (°F) Pressure Precipitation (in)
Air Dwpt 6 hour altimeter (in) sea level (mb) 1 hr 3 hr 6 hr
Max. Min.
14 03:53 SW 14 10.00 Mostly Cloudy BKN080 52 50 60.1 52 93% 30.15 1021.7 0.07 0.18
14 02:53 W 14 1.75 Heavy Rain Fog/Mist FEW021 BKN029 OVC048 54 50 87% 30.14 1021.4 0.11
14 01:53 NW 7 10.00 Overcast SCT036 BKN049 OVC110 55 48 77% 30.14 1021.3
14 00:53 W 6 10.00 Overcast BKN038 OVC045 55.9 48.9 77% 30.13 1021.1
13 23:53 W 6 10.00 Mostly Cloudy BKN049 BKN110 57 50 78% 30.12 1020.8
13 22:53 W 6 10.00 Mostly Cloudy BKN120 57.9 51.1 78% 30.11 1020.4
13 21:53 W 7 10.00 Overcast OVC100 60.1 50 63 57.9 70% 30.11 1020.2
13 20:53 NW 6 10.00 Overcast FEW035 BKN110 BKN160 OVC200 61 50 67% 30.12 1020.3
13 19:53 NW 9 10.00 Overcast FEW028 SCT035 BKN100 BKN160 OVC200 62.1 50 65% 30.11 1020.1
13 18:53 N 6 10.00 Overcast FEW028 BKN035 BKN060 BKN160 OVC200 62.1 48.9 62% 30.11 1020.1
13 17:53 NW 8 10.00 Overcast SCT026 BKN033 BKN120 OVC200 61 50 67% 30.12 1020.3
13 16:53 NW 6 10.00 Overcast SCT023 SCT029 BKN120 OVC200 59 50 72% 30.13 1021.0
13 15:53 NW 9 10.00 Overcast FEW013 SCT017 BKN031 OVC200 57.9 51.1 57.9 48.9 78% 30.15 1021.5
13 14:53 NW 7 10.00 Overcast SCT012 OVC015 54 50 87% 30.15 1021.8
13 13:53 W 7 10.00 Overcast SCT010 BKN015 OVC030 53.1 48.9 86% 30.16 1022.2
13 12:53 SW 7 10.00 Overcast SCT010 BKN015 OVC040 51.1 48 89% 30.16 1022.4
13 11:53 SW 7 10.00 Overcast BKN011 BKN022 OVC030 51.1 48 89% 30.17 1022.4
13 10:53 SW 5 10.00 Overcast BKN013 BKN022 OVC050 50 46 86% 49 30.17 1022.4
13 09:53 W 9 10.00 Overcast SCT015 BKN022 OVC050 48.9 46 50 48.9 90% 45 30.17 1022.5
13 08:53 W 9 10.00 Overcast FEW010 BKN022 OVC060 48.9 46 90% 45 30.16 1022.2
13 07:53 SW 8 10.00 Overcast FEW010 BKN025 OVC060 48.9 46 90% 46 30.15 1021.8
13 06:53 W 7 10.00 Overcast FEW010 BKN027 OVC040 48.9 46 90% 46 30.14 1021.6
13 05:53 W 7 10.00 Overcast FEW010 BKN027 OVC040 48.9 46 90% 46 30.13 1021.2
13 04:53 SW 7 10.00 Overcast OVC029 48.9 46.9 93% 46 30.12 1020.8
13 03:53 SW 9 10.00 Overcast OVC030 48.9 46 51.1 48.9 90% 45 30.11 1020.5 0.22
13 02:53 SW 10 10.00 Light Rain OVC030 48.9 46.9 93% 45 30.1 1020.2 0.03
13 01:53 SW 9 4.00 Rain Fog/Mist BKN028 BKN035 OVC050 48.9 46.9 93% 45 30.1 1020.1 0.15
13 00:53 SW 8 8.00 Light Rain SCT017 BKN022 OVC031 48.9 46.9 93% 46 30.1 1020.1 0.04 0.04
12 23:53 SW 12 10.00 Light Rain OVC017 50 46 86% 46 30.08 1019.6
12 22:53 SW 13 10.00 Overcast OVC022 51.1 46 83% 30.07 1019.0
12 21:53 SW 12 10.00 Overcast BKN019 OVC026 51.1 46.9 54 50 86% 30.05 1018.6
12 20:53 SW 10 10.00 Overcast BKN010 BKN016 OVC029 52 48 86% 30.04 1018.1
12 19:53 SW 8 10.00 Overcast BKN010 BKN016 OVC029 52 48 86% 30.02 1017.5
12 18:53 W 3 10.00 Overcast BKN010 BKN018 OVC029 53.1 48.9 86% 30.01 1017.0
12 17:53 SW 9 10.00 Overcast BKN010 BKN015 OVC029 52 48.9 89% 30 1016.8
12 16:53 SW 9 10.00 Overcast BKN010 BKN015 OVC021 52 48.9 89% 29.99 1016.5
12 15:53 W 8 10.00 Overcast BKN010 BKN015 OVC025 52 48.9 52 50 89% 29.98 1016.2 0.04
12 14:53 W 12 10.00 Overcast BKN010 BKN015 OVC025 52 52 100% 29.97 1015.6
12 13:53 NW 9 10.00 Overcast BKN010 BKN015 OVC025 52 52 100% 29.95 1015.0
12 12:53 NW 13 10.00 Overcast BKN010 BKN015 OVC025 51.1 51.1 100% 29.94 1014.6 0.04
12 11:53 NW 12 10.00 Light Rain BKN006 OVC030 50 50 100% 46 29.92 1014.1
12 10:53 SW 9 10.00 Light Rain OVC006 50 50 100% 47 29.91 1013.7 0.04
12 09:53 SW 9 5.00 Rain Fog/Mist BKN010 OVC032 50 50 50 50 100% 47 29.89 1013.0 0.06 0.07
12 08:53 SW 9 10.00 Light Rain BKN020 BKN040 OVC060 50 48.9 96% 47 29.88 1012.4
12 07:53 SW 12 10.00 Overcast BKN039 OVC060 50 48 93% 46 29.86 1011.8 0.01
12 06:53 SW 12 10.00 Light Rain FEW020 BKN065 OVC075 50 48 93% 46 29.83 1010.8
12 05:53 SW 6 10.00 Overcast FEW020 OVC070 50 48 93% 48 29.83 1010.3
12 03:53 SW 7 10.00 Overcast BKN065 OVC080 50 0 52 48.9 0% 48 29.8 1009.3
12 02:53 S 6 10.00 Mostly Cloudy BKN080 50 0 0% 48 29.79 1009.1
12 01:53 Calm 10.00 Overcast OVC080 51.8 0 0% 29.79 1009.1
12 00:53 SW 9 10.00 Overcast FEW060 OVC080 50 0 0% 47 29.79 1009.2
11 23:53 Calm 10.00 A Few Clouds FEW080 51.8 0 0% 29.78 1008.9
11 22:53 NW 3 10.00 Fair CLR 51.8 0 0% 29.77 1008.6
11 21:53 SW 8 10.00 Light Rain BKN080 OVC095 51.8 0 66.9 52 0% 29.75 1008.0 0.03 0.56
11 20:53 SW 5 6.00 Rain Fog/Mist OVC070 53.1 52 96% 29.74 1007.6 0.22
11 19:53 SW 6 3.00 Heavy Rain Fog/Mist OVC060 53.1 52 96% 29.74 1007.6 0.31
11 18:53 E 25 G 39 10.00 Thunderstorm Light Rain and Breezy SCT039 BKN050 OVC090 60.1 46 60% 29.73 1006.9
11 17:53 SW 16 10.00 Mostly Cloudy SCT030 BKN060 BKN100 BKN140 BKN200 64 48 56% 29.67 1004.9
11 16:53 W 9 10.00 Mostly Cloudy SCT030 BKN060 BKN100 BKN140 BKN200 66 50 56% 29.67 1004.7
11 15:53 W 9 G 16 10.00 Mostly Cloudy SCT034 BKN055 BKN100 BKN140 BKN200 64.9 51.1 64.9 55.9 61% 29.67 1004.7
11 13:53 SW 10 10.00 Overcast BKN029 BKN100 OVC140 62.1 52 70% 29.68 1005.2
11 12:53 SW 10 10.00 Overcast OVC030 59 51.1 75% 29.68 1005.3
11 11:53 W 6 10.00 Overcast BKN019 BKN038 OVC055 59 52 78% 29.67 1005.0
11 10:53 W 7 10.00 Overcast BKN037 OVC055 57 51.1 81% 29.67 1004.8
11 07:53 SW 8 10.00 Overcast OVC046 54 48 80% 29.66 1004.6
11 06:53 SW 7 10.00 Overcast SCT041 OVC050 53.1 48.9 86% 29.66 1004.5
11 04:53 SW 9 3.00 Fog/Mist Smoke BKN110 51.1 48.9 92% 29.66 1004.4
Date Time (akdt) Wind (mph) Vis. (mi.) Weather Sky Cond. Air Dwpt Max. Min. Relative Humidity Wind Chill (°F) Heat Index (°F) altimeter (in) sea level (mb) 1 hr 3 hr 6 hr
6 hour
Temperature (ºF) Pressure Precipitation (in)